Tracking 29892 objects as of 21-Nov-2024
HD Live streaming from Space Station
objects crossing your sky now

STARLINK-2142

Track STARLINK-2142 now!
10-day predictions
STARLINK-2142 is classified as:


NORAD ID: 47732
Int'l Code: 2021-017L
Perigee: 553.6 km
Apogee: 555.0 km
Inclination: 53.1 °
Period: 95.6 minutes
Semi major axis: 6925 km
RCS: Unknown
Launch date: March 4, 2021
Source: United States (US)
Launch site: AIR FORCE EASTERN TEST RANGE (AFETR)
Your satellite tracking list
Your tracking list is empty




NASA's NSSDC Master Catalog

Two Line Element Set (TLE):
1 47732U 21017L   24325.39277631  .00003249  00000-0  23681-3 0  9999
2 47732  53.0529  96.0568 0001050  97.3910 262.7198 15.06409968207437
Source of the keplerian elements: AFSPC